Le nostre stazioni meteo in Italia

Pubblicità
Il mio iltempo24.it
Bolzano, Italia (16020): Temperatura & dewpoint: 10.10.2018 04:00:00 - 16.10.2018 04:00:00 (CEST)Bolzano, Italia (16020): velocità del vento: 10.10.2018 04:00:00 - 16.10.2018 04:00:00 (CEST)Bolzano, Italia (16020): direzione del vento: 10.10.2018 04:00:00 - 16.10.2018 04:00:00 (CEST)Bolzano, Italia (16020): reduced air pressure: 10.10.2018 04:00:00 - 16.10.2018 04:00:00 (CEST)Bolzano, Italia (16020): visibility: 10.10.2018 04:00:00 - 16.10.2018 04:00:00 (CEST)Bolzano, Italia (16020): precipitazioni: 10.10.2018 04:00:00 - 16.10.2018 04:00:00 (CEST)
Data & Tempo tt [°C] td [°C] ff [km/h] ff [kn] dd ppp [hPa] vv [km] rr [mm]
16.10.2018 04:00:00 - - - - - - - -
16.10.2018 03:00:00 - - - - - - - -
16.10.2018 02:00:00 10,1 8,2 2 1 E 1021,9 - 0,0
16.10.2018 01:00:00 - - - - - - - -
16.10.2018 00:00:00 - - - - - - - -
15.10.2018 23:00:00 13,2 9,9 0 0 N 1020,7 10 -
15.10.2018 22:00:00 16,0 10,0 5 3 SE - 10 -
15.10.2018 21:00:00 15,0 12,0 0 0 N - 10 -
15.10.2018 20:00:00 15,6 12,6 0 0 N 1019,5 10 0,0
15.10.2018 19:00:00 16,0 12,0 0 0 N - 10 -
15.10.2018 18:00:00 19,0 11,0 8 4 N - 10 -
15.10.2018 17:00:00 19,0 10,7 9 5 NNO 1017,7 10 -
15.10.2018 16:00:00 21,0 10,0 9 5 NO - 10 -
15.10.2018 15:00:00 22,0 10,0 4 2 - - 10 -
15.10.2018 14:00:00 21,6 10,8 5 3 - 1018,1 10 0,0
15.10.2018 13:00:00 20,0 10,0 4 2 - - 10 -
15.10.2018 12:00:00 19,0 11,0 2 1 - - 10 -
15.10.2018 11:00:00 17,2 10,7 4 2 - 1020,1 10 -
15.10.2018 10:00:00 14,0 11,0 5 3 - - 10 -
15.10.2018 09:00:00 12,0 10,0 5 3 - - 10 -
15.10.2018 08:00:00 10,8 10,0 0 0 N 1020,5 10 0,0
15.10.2018 07:00:00 11,0 10,0 4 2 - - 10 -
15.10.2018 06:00:00 - - - - - - - -
15.10.2018 05:00:00 12,0 10,8 0 0 N 1019,9 - -
15.10.2018 04:00:00 - - - - - - - -
15.10.2018 03:00:00 - - - - - - - -
15.10.2018 02:00:00 13,8 11,4 5 3 SSE 1020,0 - 0,0
15.10.2018 01:00:00 - - - - - - - -
15.10.2018 00:00:00 - - - - - - - -
14.10.2018 23:00:00 15,3 11,3 5 3 - 1019,5 10 -
14.10.2018 22:00:00 16,0 11,0 5 3 - - 10 -
14.10.2018 21:00:00 17,0 11,0 5 3 - - 10 -
14.10.2018 20:00:00 14,8 11,9 2 1 NO 1018,5 35 0,0
14.10.2018 19:00:00 16,0 11,0 8 4 NNE - 10 -
14.10.2018 18:00:00 21,0 10,0 5 3 O - 10 -
14.10.2018 17:00:00 22,6 12,1 9 5 S 1016,8 10 -
14.10.2018 16:00:00 22,0 10,0 9 5 S - 10 -
14.10.2018 15:00:00 22,0 10,0 8 4 S - 10 -
14.10.2018 14:00:00 21,2 10,6 4 2 - 1018,8 10 0,0
14.10.2018 13:00:00 19,0 10,0 2 1 - - 10 -
14.10.2018 12:00:00 17,0 9,0 2 1 - - 10 -
14.10.2018 11:00:00 16,5 9,7 2 1 - 1022,9 10 -
14.10.2018 10:00:00 13,0 11,0 2 1 - - 10 -
14.10.2018 09:00:00 7,0 7,0 0 0 N - 10 -
14.10.2018 08:00:00 7,9 7,6 2 1 - 1024,0 10 0,0
14.10.2018 07:00:00 8,0 7,0 0 0 N - 10 -
14.10.2018 06:00:00 - - - - - - - -
14.10.2018 05:00:00 8,7 7,6 2 1 ESE 1023,9 - -
14.10.2018 04:00:00 - - - - - - - -
14.10.2018 03:00:00 - - - - - - - -
14.10.2018 02:00:00 9,9 9,2 2 1 ESE 1024,1 - 0,0
14.10.2018 01:00:00 - - - - - - - -
14.10.2018 00:00:00 - - - - - - - -
13.10.2018 23:00:00 11,6 10,0 2 1 - 1023,8 10 -
13.10.2018 22:00:00 13,0 12,0 0 0 N - 10 -
13.10.2018 21:00:00 15,0 13,0 4 2 - - 10 -
13.10.2018 20:00:00 15,1 12,2 4 2 - 1022,4 10 0,0
13.10.2018 19:00:00 18,0 13,0 0 0 N - 10 -
13.10.2018 18:00:00 22,0 14,0 4 2 - - 10 -
13.10.2018 17:00:00 24,1 13,0 8 4 SSO 1020,3 10 -
13.10.2018 16:00:00 24,0 12,0 9 5 S - 10 -
13.10.2018 15:00:00 23,0 12,0 5 3 - - 10 -
13.10.2018 14:00:00 23,1 11,9 5 3 - 1022,3 10 0,0
13.10.2018 13:00:00 22,0 11,0 5 3 - - 10 -
13.10.2018 12:00:00 19,0 11,0 4 2 - - 10 -
13.10.2018 11:00:00 17,5 11,1 2 1 - 1026,1 10 -
13.10.2018 10:00:00 15,0 10,0 2 1 NO - 10 -
13.10.2018 09:00:00 11,0 10,0 0 0 N - 10 -
13.10.2018 08:00:00 10,2 9,6 0 0 N 1027,6 10 0,0
13.10.2018 07:00:00 10,0 9,0 0 0 N - 10 -
13.10.2018 06:00:00 - - - - - - - -
13.10.2018 05:00:00 10,6 9,9 2 1 NNO 1027,3 - -
13.10.2018 04:00:00 - - - - - - - -
13.10.2018 03:00:00 - - - - - - - -
13.10.2018 02:00:00 11,9 10,5 2 1 NE 1027,7 - 0,0
13.10.2018 01:00:00 - - - - - - - -
13.10.2018 00:00:00 - - - - - - - -
12.10.2018 23:00:00 14,0 11,4 8 4 ONO 1027,4 10 -
12.10.2018 22:00:00 14,0 12,0 0 0 N - 10 -
12.10.2018 21:00:00 16,0 12,0 0 0 N - 10 -
12.10.2018 20:00:00 16,4 12,5 8 4 NO 1025,4 10 0,0
12.10.2018 19:00:00 19,0 13,0 0 0 N - 10 -
12.10.2018 18:00:00 23,0 12,0 2 1 - - 10 -
12.10.2018 17:00:00 24,6 11,5 5 3 - 1022,8 10 -
12.10.2018 16:00:00 25,0 12,0 5 3 - - 10 -
12.10.2018 15:00:00 24,0 11,0 4 2 - - 10 -
12.10.2018 14:00:00 23,6 11,9 0 0 N 1023,9 10 0,0
12.10.2018 13:00:00 21,0 11,0 0 0 N - 10 -
12.10.2018 12:00:00 20,0 11,0 0 0 N - 10 -
12.10.2018 11:00:00 18,9 12,3 4 2 - 1027,1 10 -
12.10.2018 10:00:00 15,0 12,0 5 3 - - 10 -
12.10.2018 09:00:00 11,0 11,0 0 0 N - 10 -
12.10.2018 08:00:00 11,6 11,2 0 0 N 1026,8 10 0,0
12.10.2018 07:00:00 11,0 11,0 0 0 N - 9 -
12.10.2018 06:00:00 - - - - - - - -
12.10.2018 05:00:00 12,3 11,7 2 1 N 1025,5 - -
12.10.2018 04:00:00 - - - - - - - -
12.10.2018 03:00:00 - - - - - - - -
12.10.2018 02:00:00 16,4 13,2 8 4 N 1024,3 - 0,0
12.10.2018 01:00:00 - - - - - - - -
12.10.2018 00:00:00 - - - - - - - -
11.10.2018 23:00:00 15,8 13,1 0 0 N 1023,6 10 -
11.10.2018 22:00:00 15,0 13,0 0 0 N - 10 -
11.10.2018 21:00:00 16,0 13,0 0 0 N - 10 -
11.10.2018 20:00:00 16,9 13,6 0 0 N 1021,6 10 0,0
11.10.2018 19:00:00 19,0 12,0 4 2 - - 10 -
11.10.2018 18:00:00 20,0 12,0 0 0 N - 10 -
11.10.2018 17:00:00 20,7 13,4 5 3 - 1019,5 10 -
11.10.2018 16:00:00 22,0 11,0 4 2 - - 10 -
11.10.2018 15:00:00 22,0 11,0 4 2 - - 10 -
11.10.2018 14:00:00 20,4 12,3 5 3 - 1020,8 10 0,0
11.10.2018 13:00:00 20,0 11,0 8 4 - - 10 -
11.10.2018 12:00:00 18,0 10,0 2 1 - - 10 -
11.10.2018 11:00:00 17,6 10,9 4 2 - 1023,2 10 -
11.10.2018 10:00:00 14,0 11,0 2 1 - - 10 -
11.10.2018 09:00:00 11,0 11,0 2 1 - - 10 -
11.10.2018 08:00:00 9,3 8,8 2 1 - 1023,7 10 0,0
11.10.2018 07:00:00 9,0 9,0 2 1 - - 10 -
11.10.2018 06:00:00 - - - - - - - -
11.10.2018 05:00:00 10,4 9,8 2 1 ENE 1022,9 - -
11.10.2018 04:00:00 - - - - - - - -
11.10.2018 03:00:00 - - - - - - - -
11.10.2018 02:00:00 12,0 10,4 2 1 S 1022,6 - 0,0
11.10.2018 01:00:00 - - - - - - - -
11.10.2018 00:00:00 - - - - - - - -
10.10.2018 23:00:00 14,0 11,2 4 2 - 1022,2 10 -
10.10.2018 22:00:00 15,0 11,0 5 3 NNO - 10 -
10.10.2018 21:00:00 18,0 11,0 4 2 - - 10 -
10.10.2018 20:00:00 18,8 11,4 8 4 S 1020,6 10 0,0
10.10.2018 19:00:00 21,0 12,0 11 6 SSE - 10 -
10.10.2018 18:00:00 23,0 12,0 8 4 SSE - 10 -
10.10.2018 17:00:00 24,5 11,7 9 5 SSE 1018,6 10 -
10.10.2018 16:00:00 24,0 11,0 8 4 S - 10 -
10.10.2018 15:00:00 24,0 11,0 11 6 SSO - 10 -
10.10.2018 14:00:00 23,3 12,8 13 7 SSO 1020,8 10 0,0
10.10.2018 13:00:00 22,0 12,0 8 4 S - 10 -
10.10.2018 12:00:00 20,0 12,0 5 3 S - 10 -
10.10.2018 11:00:00 19,1 12,4 5 3 - 1023,7 10 -
10.10.2018 10:00:00 17,0 13,0 5 3 S - 10 -
10.10.2018 09:00:00 14,0 13,0 5 3 - - 10 -
10.10.2018 08:00:00 12,4 11,7 5 3 - 1024,2 10 0,0
10.10.2018 07:00:00 13,0 12,0 0 0 N - 10 -
10.10.2018 06:00:00 - - - - - - - -
10.10.2018 05:00:00 13,9 12,9 2 1 O 1023,7 - -
10.10.2018 04:00:00 - - - - - - - -

tt = Temperatura
td = dewpoint
ff = velocità del vento
dd = direzione del vento
ppp = reduced air pressure
vv = visibility
rr = precipitazioni

Stazioni seguenti

WeatherPro
AMSI
MeteoEarth